Year,Month,Day,Hour,Minute,Value (Times are PST for temperature in C)
2016,04,20,00,00,17.30
2016,04,20,00,01,17.20
2016,04,20,00,02,17.20
2016,04,20,00,03,17.10
2016,04,20,00,04,17.10
2016,04,20,00,05,17.10
2016,04,20,00,06,16.90
2016,04,20,00,07,16.70
2016,04,20,00,08,16.60
2016,04,20,00,09,16.60
2016,04,20,00,10,16.60
2016,04,20,00,11,16.70
2016,04,20,00,12,16.80
2016,04,20,00,13,16.90
2016,04,20,00,14,17.00
2016,04,20,00,15,17.20
2016,04,20,00,16,17.30
2016,04,20,00,17,17.40
2016,04,20,00,18,17.30
2016,04,20,00,19,17.20
2016,04,20,00,20,17.20
2016,04,20,00,21,17.20
2016,04,20,00,22,17.20
2016,04,20,00,23,17.20
2016,04,20,00,24,17.20
2016,04,20,00,25,17.20
2016,04,20,00,26,17.20
2016,04,20,00,27,17.20
2016,04,20,00,28,17.20
2016,04,20,00,29,17.20
2016,04,20,00,30,17.30
2016,04,20,00,31,17.40
2016,04,20,00,32,17.40
2016,04,20,00,33,17.40
2016,04,20,00,34,17.40
2016,04,20,00,35,17.40
2016,04,20,00,36,17.40
2016,04,20,00,37,17.50
2016,04,20,00,38,17.60
2016,04,20,00,39,17.60
2016,04,20,00,40,17.60
2016,04,20,00,41,17.50
2016,04,20,00,42,17.30
2016,04,20,00,43,17.30
2016,04,20,00,44,17.30
2016,04,20,00,45,17.40
2016,04,20,00,46,17.40
2016,04,20,00,47,17.40
2016,04,20,00,48,17.40
2016,04,20,00,49,17.40
2016,04,20,00,50,17.50
2016,04,20,00,51,17.40
2016,04,20,00,52,17.40
2016,04,20,00,53,17.40
2016,04,20,00,54,17.40
2016,04,20,00,55,17.40
2016,04,20,00,56,17.50
2016,04,20,00,57,17.50
2016,04,20,00,58,17.50
2016,04,20,00,59,17.50
2016,04,20,01,00,17.40
2016,04,20,01,01,17.20
2016,04,20,01,02,16.90
2016,04,20,01,03,16.60
2016,04,20,01,04,16.20
2016,04,20,01,05,16.00
2016,04,20,01,06,15.80
2016,04,20,01,07,15.60
2016,04,20,01,08,15.50
2016,04,20,01,09,15.30
2016,04,20,01,10,15.20
2016,04,20,01,11,15.00
2016,04,20,01,12,14.80
2016,04,20,01,13,14.70
2016,04,20,01,14,14.60
2016,04,20,01,15,14.40
2016,04,20,01,16,14.30
2016,04,20,01,17,14.20
2016,04,20,01,18,14.10
2016,04,20,01,19,14.00
2016,04,20,01,20,13.90
2016,04,20,01,21,13.80
2016,04,20,01,22,13.80
2016,04,20,01,23,13.70
2016,04,20,01,24,13.70
2016,04,20,01,25,13.60
2016,04,20,01,26,13.50
2016,04,20,01,27,13.40
2016,04,20,01,28,13.40
2016,04,20,01,29,13.40
2016,04,20,01,30,13.30
2016,04,20,01,31,13.30
2016,04,20,01,32,13.20
2016,04,20,01,33,13.20
2016,04,20,01,34,13.10
2016,04,20,01,35,13.10
2016,04,20,01,36,13.10
2016,04,20,01,37,13.10
2016,04,20,01,38,13.30
2016,04,20,01,39,13.50
2016,04,20,01,40,13.90
2016,04,20,01,41,14.20
2016,04,20,01,42,14.40
2016,04,20,01,43,14.70
2016,04,20,01,44,14.70
2016,04,20,01,45,14.70
2016,04,20,01,46,14.70
2016,04,20,01,47,14.70
2016,04,20,01,48,14.70
2016,04,20,01,49,14.70
2016,04,20,01,50,14.80
2016,04,20,01,51,15.00
2016,04,20,01,52,15.30
2016,04,20,01,53,15.50
2016,04,20,01,54,15.80
2016,04,20,01,55,16.10
2016,04,20,01,56,16.30
2016,04,20,01,57,16.50
2016,04,20,01,58,16.70
2016,04,20,01,59,16.80
2016,04,20,02,00,16.80
2016,04,20,02,01,16.90
2016,04,20,02,02,16.90
2016,04,20,02,03,16.90
2016,04,20,02,04,16.90
2016,04,20,02,05,17.00
2016,04,20,02,06,17.10
2016,04,20,02,07,17.20
2016,04,20,02,08,17.30
2016,04,20,02,09,17.30
2016,04,20,02,10,17.40
2016,04,20,02,11,17.40
2016,04,20,02,12,17.50
2016,04,20,02,13,17.50
2016,04,20,02,14,17.60
2016,04,20,02,15,17.60
2016,04,20,02,16,17.60
2016,04,20,02,17,17.60
2016,04,20,02,18,17.60
2016,04,20,02,19,17.60
2016,04,20,02,20,17.70
2016,04,20,02,21,17.70
2016,04,20,02,22,17.80
2016,04,20,02,23,17.80
2016,04,20,02,24,17.80
2016,04,20,02,25,17.90
2016,04,20,02,26,18.00
2016,04,20,02,27,18.00
2016,04,20,02,28,18.10
2016,04,20,02,29,18.20
2016,04,20,02,30,18.20
2016,04,20,02,31,18.20
2016,04,20,02,32,18.20
2016,04,20,02,33,18.20
2016,04,20,02,34,18.20
2016,04,20,02,35,18.10
2016,04,20,02,36,18.10
2016,04,20,02,37,18.10
2016,04,20,02,38,18.10
2016,04,20,02,39,18.10
2016,04,20,02,40,18.10
2016,04,20,02,41,18.10
2016,04,20,02,42,18.10
2016,04,20,02,43,17.90
2016,04,20,02,44,17.80
2016,04,20,02,45,17.70
2016,04,20,02,46,17.40
2016,04,20,02,47,17.30
2016,04,20,02,48,17.20
2016,04,20,02,49,17.20
2016,04,20,02,50,17.20
2016,04,20,02,51,17.20
2016,04,20,02,52,17.30
2016,04,20,02,53,17.30
2016,04,20,02,54,17.40
2016,04,20,02,55,17.40
2016,04,20,02,56,17.60
2016,04,20,02,57,17.70
2016,04,20,02,58,17.80
2016,04,20,02,59,17.80
2016,04,20,03,00,17.90
2016,04,20,03,01,17.90
2016,04,20,03,02,17.90
2016,04,20,03,03,17.90
2016,04,20,03,04,17.90
2016,04,20,03,05,17.90
2016,04,20,03,06,17.90
2016,04,20,03,07,17.90
2016,04,20,03,08,17.80
2016,04,20,03,09,17.80
2016,04,20,03,10,17.80
2016,04,20,03,11,17.70
2016,04,20,03,12,17.60
2016,04,20,03,13,17.60
2016,04,20,03,14,17.60
2016,04,20,03,15,17.60
2016,04,20,03,16,17.70
2016,04,20,03,17,17.70
2016,04,20,03,18,17.70
2016,04,20,03,19,17.70
2016,04,20,03,20,17.80
2016,04,20,03,21,17.80
2016,04,20,03,22,17.80
2016,04,20,03,23,17.80
2016,04,20,03,24,17.70
2016,04,20,03,25,17.70
2016,04,20,03,26,17.70
2016,04,20,03,27,17.70
2016,04,20,03,28,17.50
2016,04,20,03,29,17.40
2016,04,20,03,30,17.10
2016,04,20,03,31,16.80
2016,04,20,03,32,16.60
2016,04,20,03,33,16.20
2016,04,20,03,34,15.90
2016,04,20,03,35,15.70
2016,04,20,03,36,15.50
2016,04,20,03,37,15.30
2016,04,20,03,38,15.10
2016,04,20,03,39,14.90
2016,04,20,03,40,14.70
2016,04,20,03,41,14.60
2016,04,20,03,42,14.40
2016,04,20,03,43,14.30
2016,04,20,03,44,14.20
2016,04,20,03,45,14.10
2016,04,20,03,46,13.90
2016,04,20,03,47,13.70
2016,04,20,03,48,13.60
2016,04,20,03,49,13.40
2016,04,20,03,50,13.30
2016,04,20,03,51,13.30
2016,04,20,03,52,13.20
2016,04,20,03,53,13.10
2016,04,20,03,54,12.90
2016,04,20,03,55,12.80
2016,04,20,03,56,12.80
2016,04,20,03,57,12.70
2016,04,20,03,58,12.60
2016,04,20,03,59,12.50
2016,04,20,04,00,12.40
2016,04,20,04,01,12.40
2016,04,20,04,02,12.30
2016,04,20,04,03,12.20
2016,04,20,04,04,12.20
2016,04,20,04,05,12.20
2016,04,20,04,06,12.10
2016,04,20,04,07,12.10
2016,04,20,04,08,12.10
2016,04,20,04,09,12.10
2016,04,20,04,10,12.10
2016,04,20,04,11,12.10
2016,04,20,04,12,12.00
2016,04,20,04,13,11.90
2016,04,20,04,14,11.90
2016,04,20,04,15,11.80
2016,04,20,04,16,11.80
2016,04,20,04,17,11.70
2016,04,20,04,18,11.70
2016,04,20,04,19,11.70
2016,04,20,04,20,11.70
2016,04,20,04,21,11.60
2016,04,20,04,22,11.60
2016,04,20,04,23,11.60
2016,04,20,04,24,11.50
2016,04,20,04,25,11.40
2016,04,20,04,26,11.40
2016,04,20,04,27,11.30
2016,04,20,04,28,11.30
2016,04,20,04,29,11.30
2016,04,20,04,30,11.30
2016,04,20,04,31,11.30
2016,04,20,04,32,11.30
2016,04,20,04,33,11.30
2016,04,20,04,34,11.20
2016,04,20,04,35,11.20
2016,04,20,04,36,11.20
2016,04,20,04,37,11.20
2016,04,20,04,38,11.20
2016,04,20,04,39,11.10
2016,04,20,04,40,11.10
2016,04,20,04,41,11.10
2016,04,20,04,42,11.10
2016,04,20,04,43,11.10
2016,04,20,04,44,11.00
2016,04,20,04,45,11.00
2016,04,20,04,46,11.10
2016,04,20,04,47,11.10
2016,04,20,04,48,11.10
2016,04,20,04,49,11.10
2016,04,20,04,50,11.00
2016,04,20,04,51,11.00
2016,04,20,04,52,10.90
2016,04,20,04,53,10.90
2016,04,20,04,54,10.90
2016,04,20,04,55,10.90
2016,04,20,04,56,10.80
2016,04,20,04,57,10.80
2016,04,20,04,58,10.80
2016,04,20,04,59,10.80
2016,04,20,05,00,10.70
2016,04,20,05,01,10.70
2016,04,20,05,02,10.70
2016,04,20,05,03,10.70
2016,04,20,05,04,10.70
2016,04,20,05,05,10.60
2016,04,20,05,06,10.60
2016,04,20,05,07,10.60
2016,04,20,05,08,10.60
2016,04,20,05,09,10.70
2016,04,20,05,10,10.70
2016,04,20,05,11,10.80
2016,04,20,05,12,10.80
2016,04,20,05,13,10.80
2016,04,20,05,14,10.80
2016,04,20,05,15,10.80
2016,04,20,05,16,10.80
2016,04,20,05,17,10.90
2016,04,20,05,18,10.90
2016,04,20,05,19,11.00
2016,04,20,05,20,11.00
2016,04,20,05,21,11.10
2016,04,20,05,22,11.10
2016,04,20,05,23,11.10
2016,04,20,05,24,11.10
2016,04,20,05,25,11.10
2016,04,20,05,26,11.00
2016,04,20,05,27,11.00
2016,04,20,05,28,11.00
2016,04,20,05,29,10.90
2016,04,20,05,30,10.90
2016,04,20,05,31,10.90
2016,04,20,05,32,10.80
2016,04,20,05,33,10.80
2016,04,20,05,34,10.80
2016,04,20,05,35,10.70
2016,04,20,05,36,10.70
2016,04,20,05,37,10.70
2016,04,20,05,38,10.70
2016,04,20,05,39,10.60
2016,04,20,05,40,10.60
2016,04,20,05,41,10.60
2016,04,20,05,42,10.50
2016,04,20,05,43,10.40
2016,04,20,05,44,10.40
2016,04,20,05,45,10.30
2016,04,20,05,46,10.30
2016,04,20,05,47,10.30
2016,04,20,05,48,10.20
2016,04,20,05,49,10.20
2016,04,20,05,50,10.20
2016,04,20,05,51,10.20
2016,04,20,05,52,10.20
2016,04,20,05,53,10.20
2016,04,20,05,54,10.30
2016,04,20,05,55,10.30
2016,04,20,05,56,10.30
2016,04,20,05,57,10.30
2016,04,20,05,58,10.30
2016,04,20,05,59,10.30
2016,04,20,06,00,10.40
2016,04,20,06,01,10.40
2016,04,20,06,02,10.50
2016,04,20,06,03,10.50
2016,04,20,06,04,10.60
2016,04,20,06,05,10.60
2016,04,20,06,06,10.60
2016,04,20,06,07,10.50
2016,04,20,06,08,10.40
2016,04,20,06,09,10.50
2016,04,20,06,10,10.60
2016,04,20,06,11,10.60
2016,04,20,06,12,10.70
2016,04,20,06,13,10.70
2016,04,20,06,14,10.70
2016,04,20,06,15,10.70
2016,04,20,06,16,10.70
2016,04,20,06,17,10.60
2016,04,20,06,18,10.60
2016,04,20,06,19,10.60
2016,04,20,06,20,10.60
2016,04,20,06,21,10.60
2016,04,20,06,22,10.60
2016,04,20,06,23,10.60
2016,04,20,06,24,10.60
2016,04,20,06,25,10.50
2016,04,20,06,26,10.50
2016,04,20,06,27,10.50
2016,04,20,06,28,10.40
2016,04,20,06,29,10.40
2016,04,20,06,30,10.40
2016,04,20,06,31,10.40
2016,04,20,06,32,10.40
2016,04,20,06,33,10.30
2016,04,20,06,34,10.30
2016,04,20,06,35,10.30
2016,04,20,06,36,10.30
2016,04,20,06,37,10.30
2016,04,20,06,38,10.30
2016,04,20,06,39,10.30
2016,04,20,06,40,10.30
2016,04,20,06,41,10.40
2016,04,20,06,42,10.40
2016,04,20,06,43,10.40
2016,04,20,06,44,10.50
2016,04,20,06,45,10.50
2016,04,20,06,46,10.50
2016,04,20,06,47,10.60
2016,04,20,06,48,10.60
2016,04,20,06,49,10.70
2016,04,20,06,50,10.70
2016,04,20,06,51,10.80
2016,04,20,06,52,10.80
2016,04,20,06,53,10.80
2016,04,20,06,54,10.90
2016,04,20,06,55,10.90
2016,04,20,06,56,11.00
2016,04,20,06,57,11.00
2016,04,20,06,58,11.10
2016,04,20,06,59,11.10
2016,04,20,07,00,11.10
2016,04,20,07,01,11.10
2016,04,20,07,02,11.20
2016,04,20,07,03,11.10
2016,04,20,07,04,11.20
2016,04,20,07,05,11.20
2016,04,20,07,06,11.20
2016,04,20,07,07,11.20
2016,04,20,07,08,11.20
2016,04,20,07,09,11.10
2016,04,20,07,10,11.10
2016,04,20,07,11,11.10
2016,04,20,07,12,11.10
2016,04,20,07,13,11.10
2016,04,20,07,14,11.10
2016,04,20,07,15,11.10
2016,04,20,07,16,11.10
2016,04,20,07,17,11.10
2016,04,20,07,18,11.10
2016,04,20,07,19,11.00
2016,04,20,07,20,10.90
2016,04,20,07,21,10.90
2016,04,20,07,22,11.00
2016,04,20,07,23,11.00
2016,04,20,07,24,11.10
2016,04,20,07,25,11.10
2016,04,20,07,26,11.10
2016,04,20,07,27,11.20
2016,04,20,07,28,11.20
2016,04,20,07,29,11.20
2016,04,20,07,30,11.20
2016,04,20,07,31,11.20
2016,04,20,07,32,11.20
2016,04,20,07,33,11.30
2016,04,20,07,34,11.30
2016,04,20,07,35,11.30
2016,04,20,07,36,11.40
2016,04,20,07,37,11.40
2016,04,20,07,38,11.40
2016,04,20,07,39,11.50
2016,04,20,07,40,11.50
2016,04,20,07,41,11.50
2016,04,20,07,42,11.50
2016,04,20,07,43,11.50
2016,04,20,07,44,11.50
2016,04,20,07,45,11.60
2016,04,20,07,46,11.60
2016,04,20,07,47,11.60
2016,04,20,07,48,11.60
2016,04,20,07,49,11.60
2016,04,20,07,50,11.60
2016,04,20,07,51,11.60
2016,04,20,07,52,11.60
2016,04,20,07,53,11.60
2016,04,20,07,54,11.70
2016,04,20,07,55,11.70
2016,04,20,07,56,11.70
2016,04,20,07,57,11.80
2016,04,20,07,58,11.80
2016,04,20,07,59,11.90
2016,04,20,08,00,11.90
2016,04,20,08,01,11.90
2016,04,20,08,02,11.90
2016,04,20,08,03,11.90
2016,04,20,08,04,12.00
2016,04,20,08,05,12.10
2016,04,20,08,06,12.10
2016,04,20,08,07,12.20
2016,04,20,08,08,12.20
2016,04,20,08,09,12.30
2016,04,20,08,10,12.30
2016,04,20,08,11,12.40
2016,04,20,08,12,12.40
2016,04,20,08,13,12.50
2016,04,20,08,14,12.70
2016,04,20,08,15,12.90
2016,04,20,08,16,13.10
2016,04,20,08,17,13.30
2016,04,20,08,18,13.60
2016,04,20,08,19,13.80
2016,04,20,08,20,13.90
2016,04,20,08,21,14.10
2016,04,20,08,22,14.20
2016,04,20,08,23,14.30
2016,04,20,08,24,14.50
2016,04,20,08,25,14.60
2016,04,20,08,26,14.70
2016,04,20,08,27,14.80
2016,04,20,08,28,14.80
2016,04,20,08,29,14.90
2016,04,20,08,30,14.90
2016,04,20,08,31,15.00
2016,04,20,08,32,15.10
2016,04,20,08,33,15.10
2016,04,20,08,34,15.10
2016,04,20,08,35,15.10
2016,04,20,08,36,15.20
2016,04,20,08,37,15.20
2016,04,20,08,38,15.20
2016,04,20,08,39,15.20
2016,04,20,08,40,15.20
2016,04,20,08,41,15.20
2016,04,20,08,42,15.20
2016,04,20,08,43,15.20
2016,04,20,08,44,15.30
2016,04,20,08,45,15.30
2016,04,20,08,46,15.30
2016,04,20,08,47,15.30
2016,04,20,08,48,15.30
2016,04,20,08,49,15.40
2016,04,20,08,50,15.40
2016,04,20,08,51,15.40
2016,04,20,08,52,15.40
2016,04,20,08,53,15.50
2016,04,20,08,54,15.60
2016,04,20,08,55,15.70
2016,04,20,08,56,15.70
2016,04,20,08,57,15.80
2016,04,20,08,58,15.90
2016,04,20,08,59,15.90
2016,04,20,09,00,16.00
2016,04,20,09,01,16.00
2016,04,20,09,02,16.10
2016,04,20,09,03,16.10
2016,04,20,09,04,16.10
2016,04,20,09,05,16.10
2016,04,20,09,06,16.20
2016,04,20,09,07,16.20
2016,04,20,09,08,16.30
2016,04,20,09,09,16.30
2016,04,20,09,10,16.30
2016,04,20,09,11,16.30
2016,04,20,09,12,16.40
2016,04,20,09,13,16.40
2016,04,20,09,14,16.40
2016,04,20,09,15,16.50
2016,04,20,09,16,16.60
2016,04,20,09,17,16.70
2016,04,20,09,18,16.70
2016,04,20,09,19,16.80
2016,04,20,09,20,16.90
2016,04,20,09,21,17.00
2016,04,20,09,22,17.10
2016,04,20,09,23,17.20
2016,04,20,09,24,17.30
2016,04,20,09,25,17.40
2016,04,20,09,26,17.60
2016,04,20,09,27,17.80
2016,04,20,09,28,17.90
2016,04,20,09,29,18.10
2016,04,20,09,30,18.20
2016,04,20,09,31,18.30
2016,04,20,09,32,18.30
2016,04,20,09,33,18.30
2016,04,20,09,34,18.20
2016,04,20,09,35,18.20
2016,04,20,09,36,18.30
2016,04,20,09,37,18.30
2016,04,20,09,38,18.30
2016,04,20,09,39,18.30
2016,04,20,09,40,18.40
2016,04,20,09,41,18.40
2016,04,20,09,42,18.40
2016,04,20,09,43,18.50
2016,04,20,09,44,18.60
2016,04,20,09,45,18.70
2016,04,20,09,46,18.80
2016,04,20,09,47,19.00
2016,04,20,09,48,19.20
2016,04,20,09,49,19.30
2016,04,20,09,50,19.40
2016,04,20,09,51,19.60
2016,04,20,09,52,19.70
2016,04,20,09,53,19.70
2016,04,20,09,54,19.80
2016,04,20,09,55,19.80
2016,04,20,09,56,19.90
2016,04,20,09,57,19.90
2016,04,20,09,58,20.00
2016,04,20,09,59,20.10
2016,04,20,10,00,20.10
2016,04,20,10,01,20.20
2016,04,20,10,02,20.20
2016,04,20,10,03,20.30
2016,04,20,10,04,20.40
2016,04,20,10,05,20.40
2016,04,20,10,06,20.50
2016,04,20,10,07,20.60
2016,04,20,10,08,20.40
2016,04,20,10,09,20.30
2016,04,20,10,10,20.10
2016,04,20,10,11,20.00
2016,04,20,10,12,19.90
2016,04,20,10,13,19.80
2016,04,20,10,14,19.70
2016,04,20,10,15,19.40
2016,04,20,10,16,19.30
2016,04,20,10,17,19.10
2016,04,20,10,18,19.10
2016,04,20,10,19,18.90
2016,04,20,10,20,18.90
2016,04,20,10,21,18.90
2016,04,20,10,22,18.90
2016,04,20,10,23,18.90
2016,04,20,10,24,18.90
2016,04,20,10,25,19.00
2016,04,20,10,26,19.10
2016,04,20,10,27,19.10
2016,04,20,10,28,19.20
2016,04,20,10,29,19.20
2016,04,20,10,30,19.20
2016,04,20,10,31,19.20
2016,04,20,10,32,19.20
2016,04,20,10,33,19.30
2016,04,20,10,34,19.20
2016,04,20,10,35,19.20
2016,04,20,10,36,19.30
2016,04,20,10,37,19.30
2016,04,20,10,38,19.30
2016,04,20,10,39,19.30
2016,04,20,10,40,19.30
2016,04,20,10,41,19.30
2016,04,20,10,42,19.40
2016,04,20,10,43,19.40
2016,04,20,10,44,19.50
2016,04,20,10,45,19.60
2016,04,20,10,46,19.60
2016,04,20,10,47,19.70
2016,04,20,10,48,19.70
2016,04,20,10,49,19.70
2016,04,20,10,50,19.70
2016,04,20,10,51,19.70
2016,04,20,10,52,19.70
2016,04,20,10,53,19.70
2016,04,20,10,54,19.80
2016,04,20,10,55,19.80
2016,04,20,10,56,19.80
2016,04,20,10,57,19.80
2016,04,20,10,58,19.90
2016,04,20,10,59,19.90
2016,04,20,11,00,20.00
2016,04,20,11,01,20.00
2016,04,20,11,02,20.10
2016,04,20,11,03,20.10
2016,04,20,11,04,20.10
2016,04,20,11,05,20.10
2016,04,20,11,06,20.10
2016,04,20,11,07,20.10
2016,04,20,11,08,20.10
2016,04,20,11,09,20.10
2016,04,20,11,10,20.10
2016,04,20,11,11,20.10
2016,04,20,11,12,20.10
2016,04,20,11,13,20.10
2016,04,20,11,14,20.00
2016,04,20,11,15,20.00
2016,04,20,11,16,19.90
2016,04,20,11,17,19.90
2016,04,20,11,18,19.80
2016,04,20,11,19,19.80
2016,04,20,11,20,19.80
2016,04,20,11,21,19.80
2016,04,20,11,22,19.90
2016,04,20,11,23,19.90
2016,04,20,11,24,20.00
2016,04,20,11,25,20.10
2016,04,20,11,26,20.20
2016,04,20,11,27,20.20
2016,04,20,11,28,20.20
2016,04,20,11,29,20.30
2016,04,20,11,30,20.30
2016,04,20,11,31,20.30
2016,04,20,11,32,20.30
2016,04,20,11,33,20.30
2016,04,20,11,34,20.30
2016,04,20,11,35,20.30
2016,04,20,11,36,20.40
2016,04,20,11,37,20.40
2016,04,20,11,38,20.50
2016,04,20,11,39,20.50
2016,04,20,11,40,20.40
2016,04,20,11,41,20.30
2016,04,20,11,42,20.30
2016,04,20,11,43,20.30
2016,04,20,11,44,20.20
2016,04,20,11,45,20.30
2016,04,20,11,46,20.30
2016,04,20,11,47,20.30
2016,04,20,11,48,20.30
2016,04,20,11,49,20.30
2016,04,20,11,50,20.20
2016,04,20,11,51,20.20
2016,04,20,11,52,20.20
2016,04,20,11,53,20.10
2016,04,20,11,54,20.10
2016,04,20,11,55,20.10
2016,04,20,11,56,20.10
2016,04,20,11,57,20.10
2016,04,20,11,58,20.10
2016,04,20,11,59,20.20
2016,04,20,12,00,20.30
2016,04,20,12,01,20.30
2016,04,20,12,02,20.40
2016,04,20,12,03,20.50
2016,04,20,12,04,20.60
2016,04,20,12,05,20.60
2016,04,20,12,06,20.50
2016,04,20,12,07,20.40
2016,04,20,12,08,20.40
2016,04,20,12,09,20.40
2016,04,20,12,10,20.40
2016,04,20,12,11,20.40
2016,04,20,12,12,20.40
2016,04,20,12,13,20.30
2016,04,20,12,14,20.30
2016,04,20,12,15,20.40
2016,04,20,12,16,20.40
2016,04,20,12,17,20.40
2016,04,20,12,18,20.40
2016,04,20,12,19,20.40
2016,04,20,12,20,20.40
2016,04,20,12,21,20.40
2016,04,20,12,22,20.40
2016,04,20,12,23,20.40
2016,04,20,12,24,20.40
2016,04,20,12,25,20.50
2016,04,20,12,26,20.50
2016,04,20,12,27,20.50
2016,04,20,12,28,20.60
2016,04,20,12,29,20.60
2016,04,20,12,30,20.60
2016,04,20,12,31,20.60
2016,04,20,12,32,20.60
2016,04,20,12,33,20.70
2016,04,20,12,34,20.80
2016,04,20,12,35,20.80
2016,04,20,12,36,20.90
2016,04,20,12,37,21.10
2016,04,20,12,38,21.20
2016,04,20,12,39,21.30
2016,04,20,12,40,21.40
2016,04,20,12,41,21.60
2016,04,20,12,42,21.60
2016,04,20,12,43,21.70
2016,04,20,12,44,21.70
2016,04,20,12,45,21.80
2016,04,20,12,46,21.80
2016,04,20,12,47,21.80
2016,04,20,12,48,21.70
2016,04,20,12,49,21.70
2016,04,20,12,50,21.60
2016,04,20,12,51,21.60
2016,04,20,12,52,21.60
2016,04,20,12,53,21.70
2016,04,20,12,54,21.80
2016,04,20,12,55,21.80
2016,04,20,12,56,21.90
2016,04,20,12,57,22.00
2016,04,20,12,58,22.10
2016,04,20,12,59,22.10
2016,04,20,13,00,22.10
2016,04,20,13,01,22.10
2016,04,20,13,02,22.10
2016,04,20,13,03,22.10
2016,04,20,13,04,22.10
2016,04,20,13,05,22.10
2016,04,20,13,06,22.10
2016,04,20,13,07,22.20
2016,04,20,13,08,22.20
2016,04,20,13,09,22.10
2016,04,20,13,10,22.00
2016,04,20,13,11,21.90
2016,04,20,13,12,21.90
2016,04,20,13,13,21.80
2016,04,20,13,14,21.80
2016,04,20,13,15,21.90
2016,04,20,13,16,21.90
2016,04,20,13,17,22.00
2016,04,20,13,18,22.10
2016,04,20,13,19,22.20
2016,04,20,13,20,22.30
2016,04,20,13,21,22.40
2016,04,20,13,22,22.50
2016,04,20,13,23,22.50
2016,04,20,13,24,22.40
2016,04,20,13,25,22.30
2016,04,20,13,26,22.30
2016,04,20,13,27,22.30
2016,04,20,13,28,22.30
2016,04,20,13,29,22.30
2016,04,20,13,30,22.30
2016,04,20,13,31,22.20
2016,04,20,13,32,22.10
2016,04,20,13,33,21.90
2016,04,20,13,34,21.90
2016,04,20,13,35,21.80
2016,04,20,13,36,21.80
2016,04,20,13,37,21.70
2016,04,20,13,38,21.80
2016,04,20,13,39,21.80
2016,04,20,13,40,21.80
2016,04,20,13,41,21.70
2016,04,20,13,42,21.70
2016,04,20,13,43,21.70
2016,04,20,13,44,21.70
2016,04,20,13,45,21.70
2016,04,20,13,46,21.70
2016,04,20,13,47,21.70
2016,04,20,13,48,21.70
2016,04,20,13,49,21.80
2016,04,20,13,50,21.70
2016,04,20,13,51,21.70
2016,04,20,13,52,21.60
2016,04,20,13,53,21.60
2016,04,20,13,54,21.60
2016,04,20,13,55,21.60
2016,04,20,13,56,21.70
2016,04,20,13,57,21.80
2016,04,20,13,58,21.80
2016,04,20,13,59,21.80
2016,04,20,14,00,21.90
2016,04,20,14,01,21.90
2016,04,20,14,02,22.00
2016,04,20,14,03,21.90
2016,04,20,14,04,21.90
2016,04,20,14,05,21.90
2016,04,20,14,06,21.90
2016,04,20,14,07,21.90
2016,04,20,14,08,21.90
2016,04,20,14,09,22.00
2016,04,20,14,10,22.10
2016,04,20,14,11,22.10
2016,04,20,14,12,22.20
2016,04,20,14,13,22.30
2016,04,20,14,14,22.40
2016,04,20,14,15,22.50
2016,04,20,14,16,22.50
2016,04,20,14,17,22.50
2016,04,20,14,18,22.60
2016,04,20,14,19,22.50
2016,04,20,14,20,22.50
2016,04,20,14,21,22.50
2016,04,20,14,22,22.50
2016,04,20,14,23,22.40
2016,04,20,14,24,22.40
2016,04,20,14,25,22.40
2016,04,20,14,26,22.30
2016,04,20,14,27,22.20
2016,04,20,14,28,22.10
2016,04,20,14,29,22.10
2016,04,20,14,30,21.90
2016,04,20,14,31,21.90
2016,04,20,14,32,21.80
2016,04,20,14,33,21.80
2016,04,20,14,34,21.70
2016,04,20,14,36,21.60
2016,04,20,14,37,21.60
2016,04,20,14,38,21.60
2016,04,20,14,39,21.60
2016,04,20,14,40,21.60
2016,04,20,14,41,21.70
2016,04,20,14,42,21.70
2016,04,20,14,43,21.80
2016,04,20,14,44,21.90
2016,04,20,14,45,22.00
2016,04,20,14,46,22.10
2016,04,20,14,47,22.30
2016,04,20,14,48,22.40
2016,04,20,14,49,22.50
2016,04,20,14,50,22.60
2016,04,20,14,51,22.70
2016,04,20,14,52,22.70
2016,04,20,14,53,22.80
2016,04,20,14,54,22.90
2016,04,20,14,55,22.90
2016,04,20,14,56,23.00
2016,04,20,14,57,23.10
2016,04,20,14,58,23.20
2016,04,20,14,59,23.20
2016,04,20,15,00,23.30
2016,04,20,15,01,23.40
2016,04,20,15,02,23.40
2016,04,20,15,03,23.40
2016,04,20,15,04,23.40
2016,04,20,15,05,23.30
2016,04,20,15,06,23.30
2016,04,20,15,07,23.30
2016,04,20,15,08,23.30
2016,04,20,15,09,23.30
2016,04,20,15,10,23.30
2016,04,20,15,11,23.40
2016,04,20,15,12,23.40
2016,04,20,15,13,23.60
2016,04,20,15,14,23.60
2016,04,20,15,15,23.70
2016,04,20,15,16,23.80
2016,04,20,15,17,23.80
2016,04,20,15,18,23.90
2016,04,20,15,19,23.90
2016,04,20,15,20,23.90
2016,04,20,15,21,23.90
2016,04,20,15,22,23.80
2016,04,20,15,23,23.70
2016,04,20,15,24,23.70
2016,04,20,15,25,23.60
2016,04,20,15,26,23.60
2016,04,20,15,27,23.50
2016,04,20,15,28,23.40
2016,04,20,15,29,23.40
2016,04,20,15,30,23.40
2016,04,20,15,31,23.40
2016,04,20,15,32,23.40
2016,04,20,15,33,23.40
2016,04,20,15,34,23.40
2016,04,20,15,35,23.40
2016,04,20,15,36,23.40
2016,04,20,15,37,23.40
2016,04,20,15,38,23.30
2016,04,20,15,39,23.20
2016,04,20,15,40,23.20
2016,04,20,15,41,23.10
2016,04,20,15,42,23.00
2016,04,20,15,43,22.80
2016,04,20,15,44,22.70
2016,04,20,15,45,22.50
2016,04,20,15,46,22.40
2016,04,20,15,47,22.30
2016,04,20,15,48,22.20
2016,04,20,15,49,22.20
2016,04,20,15,50,22.20
2016,04,20,15,51,22.20
2016,04,20,15,52,22.20
2016,04,20,15,53,22.20
2016,04,20,15,54,22.20
2016,04,20,15,55,22.20
2016,04,20,15,56,22.20
2016,04,20,15,57,22.10
2016,04,20,15,58,21.90
2016,04,20,15,59,21.70
2016,04,20,16,00,21.60
2016,04,20,16,01,21.60
2016,04,20,16,02,21.40
2016,04,20,16,03,21.20
2016,04,20,16,04,21.10
2016,04,20,16,05,21.10
2016,04,20,16,06,21.00
2016,04,20,16,07,20.90
2016,04,20,16,08,20.90
2016,04,20,16,09,20.90
2016,04,20,16,10,20.90
2016,04,20,16,11,20.90
2016,04,20,16,12,21.00
2016,04,20,16,13,21.10
2016,04,20,16,14,21.10
2016,04,20,16,15,21.10
2016,04,20,16,16,21.00
2016,04,20,16,17,21.00
2016,04,20,16,18,20.90
2016,04,20,16,19,20.90
2016,04,20,16,20,20.80
2016,04,20,16,21,20.80
2016,04,20,16,22,20.70
2016,04,20,16,23,20.60
2016,04,20,16,24,20.60
2016,04,20,16,25,20.60
2016,04,20,16,26,20.60
2016,04,20,16,27,20.60
2016,04,20,16,28,20.60
2016,04,20,16,29,20.60
2016,04,20,16,30,20.60
2016,04,20,16,31,20.60
2016,04,20,16,32,20.40
2016,04,20,16,33,20.30
2016,04,20,16,34,20.20
2016,04,20,16,35,20.00
2016,04,20,16,36,19.90
2016,04,20,16,37,19.80
2016,04,20,16,38,19.80
2016,04,20,16,39,19.80
2016,04,20,16,40,19.80
2016,04,20,16,41,19.80
2016,04,20,16,42,19.90
2016,04,20,16,43,19.90
2016,04,20,16,44,20.00
2016,04,20,16,45,20.10
2016,04,20,16,46,20.20
2016,04,20,16,47,20.20
2016,04,20,16,48,20.20
2016,04,20,16,49,20.20
2016,04,20,16,50,20.20
2016,04,20,16,51,20.20
2016,04,20,16,52,20.20
2016,04,20,16,53,20.20
2016,04,20,16,54,20.20
2016,04,20,16,55,20.20
2016,04,20,16,56,20.10
2016,04,20,16,57,20.10
2016,04,20,16,58,20.10
2016,04,20,16,59,20.00
2016,04,20,17,00,19.90
2016,04,20,17,01,19.80
2016,04,20,17,02,19.80
2016,04,20,17,03,19.80
2016,04,20,17,04,19.70
2016,04,20,17,05,19.70
2016,04,20,17,06,19.60
2016,04,20,17,07,19.50
2016,04,20,17,08,19.40
2016,04,20,17,09,19.40
2016,04,20,17,10,19.30
2016,04,20,17,11,19.30
2016,04,20,17,12,19.30
2016,04,20,17,13,19.30
2016,04,20,17,14,19.30
2016,04,20,17,15,19.30
2016,04,20,17,16,19.20
2016,04,20,17,17,19.20
2016,04,20,17,18,19.20
2016,04,20,17,19,19.20
2016,04,20,17,20,19.20